Powrót do katalogu

SCOUT X-1 R/B

AktywnyUNKNOWN
NORAD 82·ROCKET BODY·🇺🇸 United States

Wystrzelony Feb 16, 1961 z Wallops Flight Facility

Loading…

Następne Przeloty (najbliższe 24 godziny)

TLE

ŚwieżeSource: Space-Track

Epoka: Sep 8, 2026, 11:53 UTC

1 00082U 61004B   26251.49517259  .00000087  00000-0  95335-4 0  9993
2 00082  38.8646  50.3358 1166765 269.4165  77.3009 12.27938253 87043

Śledź SCOUT X-1 R/B w czasie rzeczywistym z AllMySat

Download on the App Store